Location: Alafon
(8.4500°N, 4.2333°E)
Time: 03:57:58
(UTC+00:00)

Vanguard 2 - Pass Details

Date: 11 August 2021
Orbit: 552 x 2937 km, 32.9° (Epoch: 21 September)

Event Time Altitude Azimuth Distance (km) Brightness Sun altitude
Rises 20:32:55 0° 228° (SW) 6,462 12.5 -36.2°
Reaches altitude 10° 20:37:44 10° 225° (SW) 5,188 11.9 -37.3°
Enters shadow 20:48:12 47° 200° (SSW) 2,463 9.8 -39.6°
Maximum altitude 20:51:38 61° 148° (SSE) 1,953 - -40.4°
Drops below altitude 10° 20:59:57 10° 69° (ENE) 3,227 - -42.2°
Sets 21:02:15 0° 65° (ENE) 3,943 - -42.7°
